Location: Boiro
(42.6475°N, 8.8834°W)
Time: 16:43:54
(UTC+01:00)

Explorer 11/Cluster Stage 4 - Pass Details

Date: 04 December 2021
Orbit: 467 x 1255 km, 28.8° (Epoch: 21 January)

Event Time Altitude Azimuth Distance (km) Brightness Sun altitude
Rises 02:30:54 0° 206° (SSW) 3,322 - -65.5°
Reaches altitude 10° 02:34:51 10° 178° (S) 2,585 - -65.0°
Maximum altitude 02:37:30 13° 153° (SSE) 2,504 - -64.7°
Drops below altitude 10° 02:40:19 10° 129° (SE) 2,827 - -64.4°
Sets 02:45:06 0° 104° (ESE) 3,960 - -63.7°
